This is the latest recevied weather packets stored in our database for station/object VK2BNC-13. If no packets are shown the sender has not sent any weather packets the latest 10 day(s).
| Time | Temp. | Humidity | Pressure | Rain* | Wind** | Luminosity | Snow |
|---|---|---|---|---|---|---|---|
| 1777355615 | 24.44° C | 50% | - | 0 mm | - | - | - |
| 1777354716 | 24.44° C | 52% | - | 0 mm | - | - | - |
| 1777353815 | 24.44° C | 51% | - | 0 mm | - | - | - |
| 1777352915 | 24.44° C | 50% | - | 0 mm | - | - | - |
| 1777352015 | 24.44° C | 49% | - | 0 mm | - | - | - |
| 1777351116 | 24.44° C | 51% | - | 0 mm | - | - | - |
| 1777350216 | 24.44° C | 50% | - | 0 mm | - | - | - |
| 1777349316 | 23.89° C | 51% | - | 0 mm | - | - | - |
| 1777348416 | 23.89° C | 50% | - | 0 mm | - | - | - |
| 1777347516 | 23.33° C | 52% | - | 0 mm | - | - | - |
| 1777346616 | 23.33° C | 52% | - | 0 mm | - | - | - |
| 1777345715 | 23.89° C | 52% | - | 0 mm | - | - | - |
| 1777344815 | 23.33° C | 53% | - | 0 mm | - | - | - |
| 1777343915 | 22.78° C | 55% | - | 0 mm | - | - | - |
| 1777343013 | 22.78° C | 57% | - | 0 mm | - | - | - |
| 1777342114 | 22.22° C | 58% | - | 0 mm | - | - | - |
| 1777341214 | 22.22° C | 59% | - | 0 mm | - | - | - |
| 1777340314 | 22.22° C | 59% | - | 0 mm | - | - | - |
| 1777339413 | 21.67° C | 60% | - | 0 mm | - | - | - |
| 1777338513 | 21.67° C | 68% | - | 0 mm | - | - | - |
| 1777337613 | 21.11° C | 71% | - | 0 mm | - | - | - |
| 1777336713 | 20° C | 76% | - | 0 mm | - | - | - |
| 1777335812 | 19.44° C | 77% | - | 0 mm | - | - | - |
| 1777334909 | 18.33° C | 80% | - | 0 mm | - | - | - |
* Rain latest hour (hover to see other rain measurements)
** Current wind speed in m/s (hover to see current wind gust speed)